OBJECT K, 61236

Orbit data source: Space-Track

You're viewing an Uncataloged Satellite

Recently launched and/or uncataloged satellites may have evolving metadata. Metadata may include but not limited to: Owner, Maufacturer, Bus, Motor, and Mission.

OBJECT K, 61236 is a satellite owned by Changzheng H. (CN) in SSO that was launched on Tue, 24 Sep 2024 UTC launched from the Yellow Sea Launch Area, China (YSLA). Unknown objects in Earth's orbit typically refer to objects detected orbiting the Earth but have not yet been identified or cataloged. These objects could be anything from previously untracked satellites, spent rocket stages, debris from satellite collisions, or even natural meteoroids temporarily captured by Earth's gravity.

Loading next visibility...
OBJECT K details
Identifier
61236, 2024-173K
Orbit
SSO
Last TLE update9 hours ago
Origin
Flag of CNChangzheng H. (CN / PRC)
ManufacturerChangzheng H.
MissionSpacecraft
Bus & MotorUnknown
MassUnknown
Launch date (UTC)
2024-09-24 (3 months ago)
Launch vehicleUnknown
Launch site
Yellow Sea Launch Area, China (YSLA)
Object typeUnknown
Shape & HBRUnknown
Radar Cross SectionMedium (>0.1 m² and <1 m²)

Expand to show TLE details & history

TLE from 9 hours ago
0 OBJECT K
1 61236U 24173K   24356.14134962  .00045524  00000-0  13150-2 0  9997
2 61236  97.4303  69.1298 0017360 350.1192   9.9708 15.35368212 13473
Epoch: 2024-12-21T03:23Z
Definitive object data (Epoch: 2024-12-21T03:23:32.607Z)
Latitude0.00005°
Longitude-71.95284°
Altitude451.244 km
Speed7.648 km/s
True Right ascension04h 36m 31s
True Declination0° 00' 00"
Sunlit
Object was in full shadow at TLE epoch
Visualization TLE readout
Latitude-12.72708°
Longitude106.7323°
Altitude476.211 km
Speed7.621 km/s
Apparent Right ascension19h 07m 27s
Apparent Declination-35° 54' 56"
Sunlit
Object is in daylight
Visualization observer readout
Local Sidereal Time11:04:44
Azimuth104.854° ESE
Elevation-43.897°
Doppler factor1
Orbital elements
Apogee altitude468.639 km
Perigee altitude444.908 km
Semi-major axis6,834.91 km
Eccentricity0.001736
Inclination97.4303°
RAAN69.1298°
Arg. of periapsis350.1192°
True anomaly10.00532°
Mean anomaly9.9708°
Eccentric anomaly9.98805°
Mean motion3.841 °/min
BSTAR0.001315
Orbital period93.73 mins
Loading maneuver chart data...
Loading historical data...
Loading historical data...
Loading historical data...
Loading historical data...
Loading historical data...
Loading historical data...
Loading historical data...

OBJECT K Visibility forecast

Observer location: undefined°, undefined

Span
Click to sort rows by Start time (UTC) header in descending order
Start Az.
Max El. time (UTC)
Max El. Az.
Max El.
End time (UTC)
End Az.
5 mins2024-12-21 18:02:00.037Z8.992° NNE2024-12-21 18:04:00.037Z355.309° N41.596°2024-12-21 18:07:00.037Z196.998° SSW
|